SL-12 R/B(AUX MOTOR)1 26994U 01053H 08196.25233527 .20177863 72056-5 78812-3 0 52882 26994 063.9049 137.2912 1729983 198.9698 153.6515 12.507776531052711 26994U 01053H 08196.25270454 .18791705 76633-5 48319-3 0 52752 26994 063.9018 137.3450 1744572 199.1437 155.1825 12.503137121052731 26994U 01053H 08195.84986900 .17000461 77354-5 63917-3 0 52612 26994 063.9160 138.2010 1802703 199.0562 153.0745 12.347828911052251 26994U 01053H 08195.44286142 .18098659 69803-5 61543-3 0 52572 26994 063.9269 139.0855 1869248 199.1148 153.9922 12.206523681051791 26994U 01053H 08195.11235331 .16781348 70352-5 39702-3 0 52492 26994 063.9438 139.7317 1935596 199.1428 148.7986 12.08131940105130